QPF
0.00 0.00 0.00 0.00 0.00 0.00 0.00 0.00 0.00 0.00 0.00 0.00 0.00 0.00 0.00 0.00 0.00 0.00 0.00 0.00 0.00 0.00 0.00 0.00 0.00 0.00 0.00 0.00 0.00 0.00 0.00 0.00 0.00 0.00 0.00 0.00 0.00 0.00 0.00 0.00 0.00 0.00 0.00 0.00 0.00
0.00 0.00 0.00 0.00 0.00 0.00 0.00 0.00 0.00 0.00 0.00 0.00 0.00 0.00 0.00 0.00 0.00 0.00 0.00 0.00 0.00 0.01 0.01 0.01 0.00 0.00 0.00 0.00 0.00 0.00 0.00 0.00 0.00 0.00 0.00 0.00 0.00 0.00 0.00 0.00 0.00 0.00 0.00 0.00 0.00
0.00 0.00 0.00 0.00 0.00 0.00 0.00 0.00 0.00 0.00 0.00 0.00 0.00 0.00 0.00 0.00 0.00 0.00 0.00 0.00 0.01 0.02 0.04 0.03 0.01 0.00 0.00 0.00 0.00 0.00 0.00 0.00 0.00 0.00 0.00 0.00 0.00 0.00 0.00 0.00 0.00 0.00 0.00 0.00 0.00
0.00 0.00 0.00 0.00 0.00 0.00 0.00 0.00 0.00 0.00 0.00 0.00 0.00 0.00 0.00 0.00 0.01 0.00 0.00 0.00 0.00 0.01 0.02 0.05 0.04 0.01 0.00 0.00 0.00 0.00 0.00 0.00 0.00 0.00 0.00 0.00 0.00 0.00 0.00 0.00 0.00 0.00 0.00 0.00 0.00
0.00 0.00 0.00 0.00 0.00 0.00 0.00 0.00 0.00 0.00 0.00 0.00 0.00 0.00 0.00 0.00 0.00 0.00 0.00 0.01 0.00 0.00 0.00 0.06 0.11 0.04 0.01 0.00 0.00 0.00 0.00 0.00 0.00 0.00 0.00 0.00 0.00 0.00 0.00 0.00 0.00 0.00 0.00 0.00 0.00
0.00 0.00 0.00 0.00 0.00 0.00 0.00 0.00 0.00 0.00 0.00 0.00 0.00 0.00 0.00 0.00 0.00 0.00 0.00 0.02 0.02 0.00 0.00 0.02 0.11 0.08 0.04 0.02 0.00 0.00 0.00 0.00 0.00 0.00 0.00 0.00 0.00 0.00 0.00 0.00 0.00 0.00 0.00 0.00 0.00
0.00 0.00 0.00 0.00 0.00 0.00 0.00 0.00 0.00 0.00 0.00 0.00 0.00 0.00 0.00 0.00 0.00 0.00 0.00 0.04 0.05 0.05 0.02 0.01 0.04 0.12 0.17 0.06 0.01 0.00 0.00 0.00 0.00 0.00 0.00 0.00 0.00 0.00 0.00 0.00 0.00 0.00 0.00 0.00 0.00
0.00 0.00 0.00 0.00 0.00 0.00 0.00 0.00 0.00 0.00 0.00 0.01 0.00 0.00 0.00 0.00 0.00 0.00 0.01 0.01 0.04 0.16 0.09 0.02 0.06 0.12 0.20 0.18 0.05 0.01 0.00 0.00 0.00 0.00 0.00 0.00 0.00 0.00 0.00 0.00 0.00 0.00 0.00 0.00 0.00
0.00 0.00 0.00 0.00 0.00 0.00 0.00 0.00 0.00 0.00 0.00 0.01 0.00 0.01 0.00 0.00 0.00 0.00 0.01 0.02 0.04 0.09 0.23 0.13 0.11 0.18 0.14 0.25 0.19 0.04 0.01 0.00 0.00 0.00 0.00 0.00 0.00 0.00 0.00 0.00 0.00 0.00 0.00 0.00 0.01
0.00 0.00 0.00 0.00 0.00 0.00 0.00 0.00 0.00 0.00 0.00 0.00 0.01 0.02 0.00 0.00 0.00 0.00 0.00 0.01 0.06 0.07 0.21 0.30 0.23 0.16 0.12 0.21 0.26 0.09 0.01 0.00 0.01 0.00 0.00 0.00 0.00 0.00 0.00 0.00 0.00 0.00 0.00 0.00 0.00
0.00 0.00 0.00 0.00 0.00 0.00 0.00 0.00 0.01 0.01 0.00 0.00 0.00 0.00 0.02 0.01 0.00 0.00 0.00 0.01 0.06 0.08 0.17 0.30 0.37 0.21 0.09 0.05 0.07 0.06 0.02 0.01 0.02 0.08 0.05 0.00 0.00 0.00 0.00 0.00 0.00 0.00 0.00 0.00 0.00
0.00 0.00 0.00 0.00 0.00 0.00 0.00 0.00 0.02 0.03 0.01 0.00 0.00 0.00 0.02 0.05 0.01 0.00 0.00 0.01 0.03 0.03 0.12 0.21 0.20 0.12 0.08 0.13 0.10 0.07 0.05 0.05 0.06 0.08 0.10 0.02 0.00 0.00 0.00 0.00 0.00 0.00 0.00 0.00 0.00
0.00 0.00 0.00 0.00 0.00 0.00 0.00 0.00 0.01 0.01 0.02 0.00 0.00 0.00 0.01 0.01 0.01 0.01 0.00 0.00 0.01 0.01 0.06 0.21 0.12 0.14 0.09 0.17 0.15 0.05 0.03 0.03 0.03 0.09 0.14 0.07 0.03 0.00 0.00 0.00 0.00 0.00 0.01 0.02 0.03
0.00 0.00 0.00 0.00 0.00 0.00 0.00 0.00 0.00 0.01 0.04 0.01 0.00 0.00 0.00 0.00 0.00 0.01 0.01 0.00 0.01 0.00 0.01 0.04 0.11 0.15 0.21 0.15 0.16 0.06 0.02 0.02 0.03 0.07 0.12 0.08 0.06 0.00 0.00 0.00 0.00 0.00 0.00 0.03 0.04
0.00 0.00 0.00 0.00 0.00 0.00 0.00 0.00 0.00 0.06 0.02 0.01 0.01 0.00 0.00 0.00 0.02 0.00 0.00 0.00 0.00 0.00 0.01 0.00 0.01 0.05 0.14 0.10 0.14 0.12 0.05 0.04 0.08 0.14 0.13 0.06 0.04 0.00 0.00 0.00 0.00 0.00 0.00 0.00 0.00
0.00 0.00 0.00 0.01 0.01 0.00 0.00 0.01 0.02 0.03 0.01 0.00 0.03 0.00 0.00 0.00 0.01 0.04 0.02 0.01 0.01 0.01 0.01 0.01 0.00 0.00 0.03 0.05 0.12 0.12 0.13 0.13 0.13 0.16 0.08 0.02 0.01 0.00 0.00 0.00 0.00 0.00 0.00 0.00 0.00
0.00 0.00 0.00 0.01 0.01 0.00 0.00 0.03 0.02 0.01 0.01 0.00 0.02 0.02 0.00 0.00 0.00 0.04 0.04 0.02 0.01 0.01 0.00 0.00 0.00 0.00 0.00 0.03 0.04 0.07 0.08 0.10 0.15 0.13 0.02 0.00 0.00 0.00 0.00 0.00 0.00 0.00 0.00 0.00 0.00
0.00 0.00 0.00 0.00 0.00 0.00 0.03 0.01 0.00 0.00 0.00 0.00 0.00 0.01 0.01 0.00 0.00 0.01 0.04 0.03 0.02 0.03 0.00 0.00 0.00 0.00 0.00 0.01 0.01 0.03 0.03 0.02 0.02 0.01 0.00 0.00 0.00 0.00 0.00 0.00 0.00 0.00 0.00 0.00 0.00
0.00 0.00 0.00 0.00 0.00 0.01 0.03 0.03 0.02 0.00 0.00 0.00 0.00 0.00 0.00 0.00 0.00 0.02 0.05 0.01 0.01 0.07 0.06 0.01 0.01 0.00 0.00 0.00 0.01 0.01 0.01 0.01 0.00 0.00 0.00 0.00 0.00 0.00 0.00 0.00 0.00 0.00 0.00 0.00 0.00
0.00 0.00 0.00 0.00 0.00 0.00 0.03 0.07 0.01 0.00 0.00 0.00 0.00 0.05 0.04 0.01 0.00 0.01 0.01 0.00 0.01 0.02 0.12 0.04 0.01 0.00 0.00 0.00 0.00 0.00 0.00 0.00 0.00 0.00 0.00 0.00 0.00 0.00 0.00 0.00 0.00 0.00 0.00 0.00 0.00
0.00 0.00 0.00 0.00 0.00 0.00 0.00 0.01 0.00 0.00 0.01 0.01 0.01 0.00 0.02 0.03 0.01 0.00 0.00 0.00 0.00 0.01 0.04 0.08 0.04 0.01 0.00 0.00 0.01 0.01 0.00 0.00 0.01 0.00 0.00 0.00 0.00 0.00 0.00 0.00 0.00 0.00 0.00 0.00 0.00
0.00 0.00 0.00 0.00 0.00 0.00 0.00 0.00 0.00 0.01 0.03 0.01 0.00 0.00 0.00 0.01 0.01 0.01 0.00 0.00 0.00 0.01 0.02 0.03 0.04 0.02 0.02 0.01 0.00 0.00 0.00 0.00 0.00 0.01 0.00 0.00 0.00 0.00 0.00 0.00 0.00 0.00 0.00 0.00 0.00
0.00 0.00 0.00 0.00 0.00 0.00 0.00 0.00 0.00 0.00 0.03 0.03 0.01 0.00 0.00 0.00 0.01 0.00 0.01 0.00 0.00 0.01 0.01 0.02 0.01 0.00 0.01 0.02 0.01 0.01 0.00 0.00 0.00 0.00 0.00 0.00 0.00 0.00 0.00 0.00 0.00 0.00 0.00 0.00 0.00
0.00 0.00 0.00 0.00 0.00 0.00 0.00 0.00 0.00 0.00 0.00 0.01 0.01 0.00 0.01 0.00 0.01 0.02 0.01 0.00 0.01 0.03 0.01 0.02 0.01 0.00 0.00 0.00 0.00 0.00 0.00 0.00 0.00 0.00 0.00 0.00 0.00 0.00 0.00 0.00 0.00 0.00 0.00 0.00 0.00
0.00 0.00 0.00 0.00 0.00 0.00 0.00 0.00 0.00 0.00 0.00 0.00 0.00 0.00 0.03 0.02 0.01 0.00 0.00 0.00 0.04 0.10 0.02 0.02 0.01 0.00 0.00 0.00 0.00 0.00 0.00 0.00 0.00 0.00 0.00 0.00 0.00 0.00 0.00 0.00 0.00 0.00 0.00 0.00 0.00
0.00 0.00 0.00 0.00 0.00 0.00 0.00 0.00 0.00 0.00 0.00 0.00 0.00 0.00 0.01 0.02 0.02 0.01 0.00 0.01 0.01 0.03 0.06 0.05 0.03 0.00 0.00 0.00 0.00 0.00 0.00 0.00 0.00 0.00 0.00 0.00 0.00 0.00 0.00 0.00 0.00 0.00 0.00 0.00 0.00
0.00 0.00 0.00 0.00 0.00 0.00 0.00 0.00 0.00 0.00 0.00 0.00 0.01 0.01 0.01 0.01 0.00 0.01 0.00 0.01 0.00 0.01 0.08 0.03 0.02 0.01 0.01 0.00 0.00 0.00 0.00 0.00 0.00 0.00 0.00 0.00 0.00 0.00 0.00 0.00 0.00 0.00 0.00 0.00 0.00
MSLP
1021.30 1021.10 1020.99 1020.96 1020.91 1020.81 1020.67 1020.63 1020.46 1020.31 1020.04 1019.77 1019.44 1019.10 1018.60 1018.33 1017.99 1017.60 1017.24 1017.14 1016.90 1016.75 1016.41 1015.68 1014.99 1014.79 1014.66 1014.20 1014.00 1013.51 1013.23 1012.00 1011.73 1011.47 1011.50 1011.30 1010.92 1011.11 1011.46 1011.89 1012.49 1013.37 1014.06 1014.80 1016.67
1021.33 1021.26 1021.09 1020.95 1020.92 1020.83 1020.75 1020.60 1020.48 1020.25 1020.09 1019.82 1019.54 1019.22 1018.77 1018.30 1018.19 1017.49 1017.04 1016.77 1016.74 1016.68 1016.43 1016.08 1015.17 1014.92 1014.63 1014.10 1013.99 1013.64 1012.95 1012.16 1012.10 1011.61 1011.48 1011.65 1011.33 1011.20 1011.59 1012.06 1013.02 1014.26 1015.53 1016.34 1017.13
1021.26 1021.22 1021.17 1021.00 1020.94 1020.88 1020.73 1020.67 1020.50 1020.32 1020.06 1019.81 1019.49 1019.27 1018.98 1018.54 1018.18 1016.76 1016.68 1016.73 1016.56 1016.51 1016.50 1016.05 1016.03 1015.45 1014.99 1014.41 1014.08 1013.42 1012.98 1012.29 1012.38 1012.37 1012.16 1012.01 1011.69 1011.68 1011.58 1012.07 1012.52 1013.75 1015.57 1016.81 1017.36
1021.06 1021.16 1021.10 1021.06 1021.00 1020.89 1020.79 1020.68 1020.55 1020.35 1020.10 1019.83 1019.57 1019.22 1018.81 1018.47 1017.67 1016.72 1016.43 1016.64 1016.69 1016.60 1016.78 1016.69 1016.26 1015.61 1015.12 1014.50 1013.80 1013.61 1012.98 1012.66 1012.70 1013.00 1012.90 1012.37 1012.25 1011.88 1011.92 1012.62 1012.72 1013.26 1015.07 1016.44 1017.30
1021.02 1021.06 1021.02 1020.97 1020.93 1020.91 1020.78 1020.63 1020.47 1020.29 1020.08 1019.81 1019.52 1019.28 1018.76 1017.74 1016.46 1016.35 1016.40 1016.51 1016.46 1016.59 1016.41 1016.44 1016.18 1015.40 1014.94 1014.24 1013.99 1013.65 1013.38 1013.02 1013.04 1013.25 1013.02 1012.86 1012.47 1012.39 1012.23 1012.46 1013.07 1014.00 1015.49 1016.47 1016.93
1020.97 1020.96 1020.97 1020.90 1020.80 1020.76 1020.67 1020.60 1020.42 1020.21 1019.89 1019.70 1019.44 1019.24 1018.66 1017.13 1015.91 1016.10 1016.37 1016.53 1016.44 1016.34 1016.26 1016.26 1016.05 1015.44 1015.12 1014.44 1013.79 1013.39 1013.44 1013.15 1013.06 1013.37 1013.06 1013.11 1012.64 1012.53 1012.57 1012.72 1013.45 1014.47 1015.46 1016.30 1016.47
1020.85 1020.76 1020.83 1020.74 1020.71 1020.61 1020.51 1020.49 1020.34 1020.09 1019.87 1019.50 1019.31 1019.07 1017.74 1016.24 1015.81 1015.84 1016.12 1016.33 1016.17 1016.39 1016.50 1016.03 1015.91 1015.84 1015.31 1015.02 1014.19 1013.52 1013.69 1013.57 1013.29 1013.25 1013.33 1013.34 1013.10 1012.65 1012.63 1012.73 1013.51 1014.26 1015.00 1015.84 1016.10
1020.63 1020.67 1020.70 1020.61 1020.57 1020.53 1020.41 1020.32 1020.12 1019.90 1019.61 1019.38 1019.07 1018.95 1017.07 1015.38 1015.42 1015.69 1015.89 1016.31 1016.41 1016.23 1016.76 1016.24 1016.07 1015.92 1015.62 1015.22 1014.96 1014.49 1014.46 1014.00 1013.37 1013.29 1013.54 1013.81 1013.11 1012.44 1012.58 1012.76 1013.16 1013.86 1014.57 1015.49 1016.07
1020.40 1020.55 1020.56 1020.47 1020.51 1020.51 1020.40 1020.23 1019.92 1019.58 1019.27 1019.16 1018.79 1018.30 1016.43 1015.80 1015.60 1015.25 1015.62 1015.75 1016.17 1016.12 1016.69 1016.42 1016.21 1015.46 1015.70 1015.29 1015.42 1014.88 1014.38 1014.39 1013.80 1013.43 1013.80 1014.09 1013.49 1012.85 1012.58 1012.80 1013.03 1013.43 1014.17 1014.99 1015.70
1020.16 1020.39 1020.41 1020.36 1020.53 1020.51 1020.33 1020.10 1019.55 1019.38 1018.68 1018.54 1018.18 1018.19 1016.23 1015.40 1015.09 1015.34 1015.50 1015.64 1015.81 1015.64 1016.66 1016.13 1015.50 1014.91 1014.71 1015.05 1014.42 1013.92 1014.60 1014.82 1014.75 1014.59 1014.24 1014.26 1013.84 1013.04 1012.75 1012.85 1013.17 1013.16 1013.82 1014.73 1015.36
1020.00 1020.25 1020.34 1020.44 1020.56 1020.52 1020.44 1020.03 1019.73 1019.32 1018.64 1017.69 1017.53 1016.91 1016.27 1015.61 1015.69 1015.40 1015.33 1015.40 1015.26 1015.32 1015.80 1015.46 1015.30 1014.56 1014.32 1014.16 1014.43 1014.44 1014.79 1014.97 1015.31 1016.03 1015.69 1014.99 1014.25 1013.46 1013.01 1012.95 1013.31 1013.37 1013.74 1014.58 1015.26
1019.91 1020.27 1020.44 1020.58 1020.62 1020.63 1020.59 1019.88 1019.79 1020.22 1018.99 1017.53 1017.33 1016.94 1016.47 1016.28 1015.50 1015.02 1015.45 1015.66 1015.07 1015.04 1015.61 1015.98 1015.18 1014.82 1014.79 1014.31 1014.40 1014.49 1014.86 1015.70 1016.31 1016.42 1017.30 1016.43 1014.65 1013.77 1013.21 1013.00 1013.18 1013.64 1013.68 1014.59 1015.36
1019.99 1020.39 1020.49 1020.68 1020.67 1020.75 1020.24 1019.85 1019.84 1019.95 1019.30 1017.30 1017.14 1016.77 1016.33 1016.34 1015.48 1014.74 1015.29 1015.07 1015.13 1015.05 1014.97 1015.17 1015.23 1014.77 1014.44 1014.65 1014.58 1014.91 1014.97 1015.79 1016.62 1017.56 1017.74 1017.23 1015.76 1014.34 1013.45 1013.20 1013.45 1014.10 1014.44 1014.80 1016.05
1020.15 1020.45 1020.49 1020.77 1021.14 1020.30 1020.12 1020.20 1020.09 1020.08 1019.46 1017.78 1017.22 1016.57 1016.38 1016.21 1015.58 1014.98 1014.96 1014.87 1014.61 1014.18 1014.29 1014.82 1015.10 1014.97 1014.65 1014.42 1014.75 1014.89 1014.98 1015.84 1016.72 1017.47 1017.75 1017.20 1015.95 1014.35 1013.83 1013.73 1014.16 1014.92 1015.52 1016.30 1017.58
1020.22 1020.43 1020.54 1020.84 1020.64 1020.40 1020.59 1020.34 1020.03 1020.20 1019.77 1018.25 1017.28 1017.00 1016.43 1016.38 1015.99 1015.33 1015.19 1014.96 1014.91 1014.51 1014.46 1014.46 1014.67 1015.48 1015.19 1014.98 1015.44 1015.53 1015.43 1016.13 1016.84 1017.38 1017.62 1017.29 1016.71 1014.15 1013.52 1014.06 1014.84 1015.72 1016.67 1018.04 1019.22
1020.26 1020.56 1020.89 1020.97 1020.53 1020.77 1020.45 1020.31 1020.47 1020.78 1019.84 1018.84 1017.89 1017.21 1016.98 1016.64 1016.04 1015.88 1015.49 1015.53 1015.56 1015.31 1015.28 1015.14 1014.80 1014.61 1015.18 1015.12 1015.80 1015.75 1015.98 1016.57 1017.27 1017.88 1018.01 1017.18 1016.75 1015.00 1014.28 1014.10 1015.18 1016.59 1017.96 1019.12 1020.53
1020.43 1020.86 1021.14 1020.77 1021.05 1020.76 1020.50 1020.61 1021.37 1021.20 1020.43 1020.23 1019.42 1018.28 1017.49 1017.01 1016.56 1016.54 1016.15 1016.04 1015.80 1015.87 1015.50 1015.41 1015.35 1015.18 1014.75 1015.41 1016.05 1016.09 1016.38 1017.07 1018.13 1018.31 1017.84 1017.21 1017.02 1015.36 1014.92 1014.79 1015.96 1017.33 1018.85 1020.34 1021.81
1020.74 1021.05 1021.44 1021.43 1021.20 1020.83 1020.81 1021.45 1021.97 1021.57 1021.46 1021.06 1020.40 1019.60 1018.52 1017.65 1017.23 1017.36 1017.23 1016.63 1016.54 1016.43 1015.98 1015.84 1015.77 1015.22 1014.76 1015.07 1015.72 1015.94 1016.41 1017.13 1017.83 1018.22 1018.12 1017.70 1016.96 1015.98 1016.03 1015.79 1016.59 1018.37 1019.92 1021.30 1022.74
1020.85 1021.12 1021.29 1021.83 1021.31 1020.75 1021.58 1022.29 1022.32 1022.44 1022.34 1021.86 1021.01 1020.46 1019.61 1018.85 1018.27 1018.11 1018.06 1017.39 1017.03 1017.20 1016.99 1016.23 1016.17 1015.93 1015.70 1015.49 1016.17 1016.32 1016.51 1017.51 1017.68 1018.31 1018.28 1017.76 1017.12 1016.81 1016.68 1017.36 1018.09 1019.40 1020.89 1022.15 1023.23
1020.87 1021.13 1021.92 1022.03 1021.59 1021.27 1022.61 1022.64 1022.72 1022.64 1022.47 1022.17 1021.75 1021.17 1020.28 1019.86 1019.23 1018.79 1018.67 1018.00 1017.34 1017.06 1017.90 1016.99 1017.05 1017.27 1016.82 1016.73 1016.92 1016.36 1016.90 1017.62 1017.95 1018.70 1018.56 1017.87 1017.14 1016.56 1017.23 1017.87 1019.09 1020.27 1021.34 1022.75 1023.81
1021.02 1021.44 1022.41 1022.17 1021.86 1022.25 1023.01 1023.10 1022.92 1022.74 1022.88 1022.48 1022.15 1021.66 1021.03 1020.42 1020.12 1019.65 1019.12 1018.30 1017.70 1017.08 1017.51 1017.53 1017.22 1018.26 1017.63 1017.86 1017.38 1017.40 1017.17 1017.61 1017.95 1018.18 1018.03 1017.68 1017.28 1016.81 1016.56 1017.54 1019.07 1020.51 1021.70 1022.96 1024.21
1021.30 1022.37 1022.54 1022.39 1022.91 1023.38 1023.39 1023.50 1023.26 1022.75 1022.89 1022.71 1022.56 1021.93 1021.63 1021.32 1020.78 1020.32 1019.52 1018.88 1018.18 1017.63 1017.57 1017.98 1017.68 1018.15 1018.71 1019.00 1018.75 1017.94 1017.53 1017.61 1017.77 1018.36 1018.33 1017.84 1017.70 1017.26 1016.93 1017.68 1019.01 1020.76 1022.10 1023.20 1024.46
1021.62 1022.27 1022.64 1022.69 1023.13 1023.42 1023.62 1023.49 1023.05 1022.73 1022.77 1022.69 1022.40 1022.06 1022.06 1021.88 1021.44 1020.58 1019.70 1019.34 1019.05 1018.55 1018.27 1018.23 1018.44 1018.74 1019.29 1019.23 1018.98 1018.59 1018.13 1017.83 1017.80 1018.09 1018.30 1017.83 1017.89 1017.70 1017.64 1018.33 1019.34 1020.78 1022.44 1023.63 1024.55
1021.65 1022.75 1023.47 1023.21 1023.54 1023.55 1023.53 1023.30 1022.94 1022.50 1022.52 1022.76 1022.64 1022.36 1022.29 1022.05 1021.68 1021.04 1020.17 1019.80 1019.62 1019.44 1019.01 1018.85 1018.73 1018.58 1018.62 1018.14 1018.00 1018.53 1018.26 1018.10 1018.22 1018.17 1017.85 1017.55 1017.68 1017.73 1018.02 1018.31 1019.51 1021.01 1022.17 1023.21 1024.47
1021.95 1023.11 1024.02 1024.14 1023.80 1023.49 1023.51 1023.20 1023.02 1022.72 1022.66 1022.78 1022.59 1022.56 1022.52 1022.23 1021.82 1021.56 1021.08 1020.55 1020.30 1020.02 1019.47 1019.43 1019.27 1018.98 1018.74 1018.27 1017.87 1017.83 1017.85 1017.88 1018.00 1018.02 1018.05 1017.59 1016.98 1016.48 1016.84 1017.67 1018.90 1020.31 1021.59 1022.90 1024.03
1022.08 1023.00 1024.20 1024.07 1023.80 1023.32 1023.53 1023.03 1022.89 1023.01 1023.02 1022.85 1023.02 1022.81 1022.85 1022.78 1022.81 1022.32 1021.93 1021.41 1020.88 1020.53 1020.14 1020.05 1019.67 1019.23 1019.10 1018.66 1018.27 1017.86 1017.58 1017.78 1017.84 1017.77 1017.60 1016.87 1016.39 1015.79 1016.22 1017.27 1018.52 1019.74 1021.07 1022.40 1023.52
1021.93 1022.51 1022.89 1023.54 1023.67 1023.40 1022.92 1022.83 1022.72 1022.83 1023.20 1023.29 1023.48 1023.34 1023.14 1023.28 1023.31 1023.27 1023.00 1022.37 1021.70 1021.07 1020.72 1020.47 1020.31 1019.94 1019.96 1019.50 1018.90 1018.48 1017.29 1017.21 1017.09 1016.66 1016.55 1016.77 1015.56 1015.91 1016.39 1017.00 1017.96 1019.23 1020.51 1021.86 1022.90
Thickness
5561 5560 5558 5557 5556 5554 5555 5553 5549 5548 5550 5552 5558 5565 5574 5582 5590 5602 5610 5619 5626 5632 5638 5645 5652 5656 5663 5668 5676 5685 5664 5677 5687 5694 5693 5711 5714 5725 5727 5718 5723 5723 5723 5723 5711
5552 5551 5548 5547 5545 5544 5543 5541 5539 5537 5537 5539 5543 5550 5561 5572 5578 5589 5604 5612 5619 5625 5632 5634 5643 5649 5650 5661 5666 5665 5664 5674 5688 5694 5696 5704 5709 5717 5715 5713 5709 5708 5708 5708 5705
5545 5541 5537 5534 5531 5529 5529 5524 5520 5518 5519 5526 5531 5537 5545 5556 5566 5585 5594 5602 5611 5620 5625 5631 5632 5640 5639 5653 5658 5666 5662 5680 5684 5689 5697 5699 5704 5715 5713 5703 5715 5709 5701 5698 5699
5538 5532 5527 5521 5517 5512 5508 5503 5498 5497 5500 5510 5516 5525 5533 5543 5553 5574 5583 5593 5601 5610 5614 5619 5625 5630 5632 5637 5659 5652 5669 5676 5679 5682 5685 5690 5700 5704 5710 5707 5718 5721 5708 5700 5695
5527 5521 5514 5508 5501 5495 5489 5482 5479 5478 5482 5492 5502 5510 5522 5535 5555 5567 5574 5583 5593 5601 5608 5612 5618 5629 5627 5643 5648 5649 5658 5672 5678 5678 5684 5690 5691 5695 5703 5713 5717 5711 5700 5694 5696
5517 5510 5502 5494 5488 5480 5471 5463 5459 5459 5465 5475 5485 5495 5509 5524 5548 5557 5563 5572 5583 5595 5602 5608 5614 5625 5628 5635 5640 5657 5656 5665 5671 5671 5680 5677 5686 5694 5698 5709 5705 5701 5695 5693 5696
5506 5500 5491 5483 5474 5465 5457 5447 5442 5443 5447 5458 5468 5480 5500 5521 5536 5549 5557 5563 5575 5583 5594 5605 5612 5614 5622 5624 5638 5652 5641 5652 5661 5668 5668 5676 5672 5680 5698 5705 5698 5698 5696 5694 5696
5498 5489 5480 5471 5461 5451 5442 5435 5433 5434 5438 5444 5455 5466 5491 5517 5529 5540 5548 5556 5565 5576 5585 5597 5604 5610 5614 5620 5622 5626 5631 5626 5655 5661 5664 5666 5657 5685 5698 5696 5695 5696 5694 5691 5691
5490 5479 5470 5461 5449 5439 5433 5429 5429 5430 5432 5437 5448 5461 5484 5506 5517 5531 5541 5552 5558 5572 5576 5587 5594 5605 5607 5610 5603 5613 5613 5618 5638 5659 5658 5653 5657 5677 5691 5690 5691 5692 5693 5690 5688
5482 5470 5460 5450 5439 5431 5427 5426 5427 5426 5430 5434 5445 5452 5478 5494 5511 5524 5535 5548 5553 5565 5566 5579 5589 5598 5607 5602 5601 5612 5612 5614 5622 5639 5649 5647 5652 5667 5683 5687 5685 5691 5690 5687 5686
5474 5462 5450 5440 5431 5425 5422 5422 5424 5424 5425 5439 5447 5458 5473 5489 5498 5512 5527 5539 5541 5555 5561 5575 5583 5596 5605 5613 5613 5616 5616 5617 5623 5615 5622 5641 5650 5657 5674 5679 5677 5682 5683 5683 5682
5466 5453 5441 5432 5425 5420 5418 5420 5418 5410 5415 5436 5444 5453 5464 5473 5489 5507 5517 5522 5533 5546 5557 5556 5569 5583 5593 5605 5605 5607 5607 5606 5603 5608 5605 5615 5636 5654 5664 5671 5672 5674 5676 5679 5680
5458 5444 5434 5426 5421 5416 5418 5418 5414 5411 5412 5437 5442 5449 5461 5469 5485 5503 5509 5523 5527 5536 5550 5550 5561 5578 5588 5593 5595 5600 5605 5601 5605 5597 5598 5602 5613 5632 5654 5662 5668 5667 5671 5677 5670
5449 5437 5430 5421 5415 5418 5416 5412 5411 5409 5406 5429 5436 5449 5458 5467 5479 5497 5506 5515 5527 5540 5551 5548 5554 5565 5574 5584 5589 5592 5603 5598 5595 5597 5593 5601 5599 5625 5640 5648 5650 5654 5656 5655 5648
5443 5434 5426 5417 5418 5416 5411 5409 5410 5407 5396 5427 5436 5443 5457 5463 5475 5485 5497 5509 5518 5532 5540 5550 5551 5554 5560 5571 5577 5580 5595 5592 5592 5589 5590 5593 5592 5625 5643 5637 5630 5641 5640 5633 5632
5440 5431 5422 5417 5418 5413 5412 5409 5406 5400 5395 5410 5432 5440 5448 5459 5472 5478 5489 5499 5507 5519 5526 5534 5549 5558 5558 5567 5570 5578 5579 5580 5580 5578 5577 5593 5593 5615 5627 5636 5631 5627 5622 5624 5616
5436 5427 5419 5418 5415 5414 5413 5410 5398 5387 5410 5404 5409 5432 5447 5457 5467 5465 5481 5489 5497 5495 5511 5528 5536 5548 5560 5558 5562 5567 5568 5562 5565 5565 5573 5590 5590 5612 5627 5631 5623 5618 5611 5604 5598
5432 5424 5417 5415 5414 5414 5412 5398 5387 5389 5390 5404 5407 5416 5433 5456 5464 5460 5462 5481 5490 5499 5514 5512 5514 5541 5555 5560 5558 5563 5565 5560 5559 5562 5571 5571 5582 5609 5613 5621 5619 5608 5598 5592 5583
5429 5423 5419 5414 5415 5416 5405 5394 5400 5385 5382 5393 5405 5411 5420 5431 5454 5454 5454 5469 5486 5488 5506 5515 5520 5534 5540 5551 5550 5551 5552 5556 5558 5548 5558 5575 5588 5596 5600 5597 5596 5591 5585 5577 5572
5430 5424 5415 5413 5414 5416 5396 5406 5396 5393 5394 5399 5399 5404 5414 5421 5440 5449 5447 5469 5485 5495 5482 5507 5509 5511 5525 5536 5537 5548 5550 5543 5545 5540 5552 5567 5584 5596 5586 5586 5583 5578 5575 5567 5562
5428 5418 5411 5411 5412 5401 5404 5400 5394 5397 5392 5398 5399 5400 5410 5421 5424 5440 5443 5464 5481 5494 5489 5492 5508 5499 5519 5521 5532 5535 5541 5544 5548 5549 5552 5559 5579 5584 5594 5588 5579 5576 5571 5561 5554
5424 5406 5409 5408 5403 5388 5397 5391 5395 5401 5392 5394 5394 5405 5402 5411 5420 5424 5440 5457 5471 5484 5485 5488 5494 5501 5503 5497 5505 5522 5542 5546 5543 5544 5549 5557 5568 5572 5583 5583 5576 5569 5560 5555 5546
5418 5415 5408 5406 5409 5401 5396 5392 5399 5403 5396 5396 5400 5406 5403 5407 5418 5425 5441 5454 5456 5469 5477 5486 5483 5489 5488 5495 5497 5513 5528 5537 5545 5543 5541 5551 5564 5561 5568 5570 5569 5558 5545 5541 5537
5422 5404 5395 5401 5398 5395 5396 5398 5399 5409 5405 5398 5397 5403 5402 5405 5411 5423 5443 5448 5450 5455 5470 5478 5484 5495 5496 5516 5512 5509 5517 5528 5534 5528 5541 5548 5555 5551 5555 5563 5561 5543 5541 5536 5527
5415 5403 5390 5403 5399 5403 5399 5403 5399 5397 5405 5403 5403 5403 5403 5406 5417 5420 5429 5438 5442 5449 5463 5468 5476 5487 5495 5509 5520 5521 5520 5525 5530 5537 5536 5550 5556 5568 5560 5561 5559 5543 5538 5529 5522
5412 5404 5383 5386 5393 5408 5396 5397 5402 5393 5396 5401 5395 5404 5402 5403 5400 5415 5417 5427 5438 5444 5452 5457 5471 5486 5473 5503 5511 5517 5524 5525 5527 5533 5537 5545 5553 5571 5565 5562 5553 5544 5537 5526 5519
5412 5407 5406 5402 5397 5401 5408 5403 5406 5403 5397 5395 5391 5396 5402 5395 5392 5391 5396 5407 5422 5438 5440 5452 5453 5459 5465 5475 5494 5468 5510 5525 5531 5536 5541 5539 5558 5558 5558 5560 5554 5544 5536 5526 5519